Change the Weather History Date:

Tuesday, July 16, 2013

  Actual Average Record
Temperature  
Mean Temperature 78 °F 70 °F  
Max Temperature 92 °F 83 °F 97 °F (1901)
Min Temperature 64 °F 58 °F 38 °F (1946)
Degree Days  
Heating Degree Days 0 0  
Month to date heating degree days 0 13  
Since 1 June heating degree days 72 98  
Since 1 July heating degree days 0 13  
Cooling Degree Days 13 6  
Month to date cooling degree days 159 86  
Year to date cooling degree days 289 188  
Since 1 June cooling degree days 268 170  
Growing Degree Days 28 (Base 50)    
Moisture  
Dew Point 67 °F    
Average Humidity 69    
Maximum Humidity 100    
Minimum Humidity 38    
Precipitation  
Precipitation 0.00 in 0.13 in 1.65 in (1923)
Month to date precipitation 2.31 1.87  
Year to date precipitation 21.85 21.22  
Snow  
Snow 0.00 in 0.00 in 0.00 in (2002)
Month to date snowfall 0.0 0.0  
Since 1 June snowfall 0.0 0.0  
Since 1 July snowfall 0.0 0.0  
Snow Depth 0.00 in    
Sea Level Pressure  
Sea Level Pressure 30.15 in    
Wind  
Wind Speed 5 mph (NW)    
Max Wind Speed 16 mph    
Max Gust Speed 21 mph    
Visibility 10 miles    
Events      
T = Trace of Precipitation, MM = Missing Value Source: NWS Daily Summary

Daily Weather History Graph

Daily Weather History Graph

Search for Another Location

Airport or City:

Trip Planner

Search our weather history database for the weather conditions in past years. The results will help you decide how hot, cold, wet, or windy it might be!

Date:

Astronomy

Jul. 16, 2013 Rise Set
Actual Time 5:20 AM EDT 8:22 PM EDT
Civil Twilight 4:46 AM EDT 8:56 PM EDT
Nautical Twilight 4:03 AM EDT 9:40 PM EDT
Astronomical Twilight 3:11 AM EDT 10:31 PM EDT
Moon 1:57 PM EDT (7/16) No Moon Set
Length of Visible Light 16h 10m
Length of Day
15h 02m
First Quarter, 56% of the Moon is Illuminated
Jul 16
First Quarter
Jul 22
Full
Jul 29
Last Quarter
Aug 6
New
Aug 14
First Quarter

Hourly Weather History & Observations

Time (EDT) Temp. Heat Index Dew Point Humidity Pressure Visibility Wind Dir Wind Speed Gust Speed Precip Events Conditions
12:51 AM 66.9 °F - 64.9 °F 93% 30.14 in 10.0 mi Calm Calm - N/A   Clear
1:51 AM 66.9 °F - 64.9 °F 93% 30.14 in 10.0 mi Calm Calm - N/A   Clear
2:51 AM 66.0 °F - 64.0 °F 93% 30.14 in 10.0 mi Calm Calm - N/A   Clear
3:51 AM 64.0 °F - 63.0 °F 96% 30.14 in 10.0 mi Calm Calm - N/A   Clear
4:51 AM 64.0 °F - 63.0 °F 96% 30.14 in 10.0 mi Calm Calm - N/A   Clear
5:51 AM 64.9 °F - 64.0 °F 97% 30.15 in 10.0 mi Calm Calm - N/A   Scattered Clouds
6:51 AM 70.0 °F - 66.9 °F 90% 30.16 in 10.0 mi Calm Calm - N/A   Overcast
7:51 AM 73.0 °F - 66.9 °F 81% 30.17 in 10.0 mi West 3.5 mph - N/A   Overcast
8:51 AM 80.1 °F 82.7 °F 68.0 °F 67% 30.16 in 10.0 mi Variable 4.6 mph - N/A   Clear
9:51 AM 84.0 °F 87.0 °F 68.0 °F 58% 30.16 in 10.0 mi NNW 8.1 mph - N/A   Clear
10:51 AM 88.0 °F 91.4 °F 68.0 °F 51% 30.15 in 10.0 mi North 9.2 mph - N/A   Clear
11:51 AM 90.0 °F 92.4 °F 66.0 °F 45% 30.15 in 10.0 mi North 8.1 mph - N/A   Clear
12:51 PM 91.0 °F 93.8 °F 66.0 °F 44% 30.15 in 10.0 mi NW 12.7 mph 17.3 mph N/A   Clear
1:51 PM 91.0 °F 91.9 °F 63.0 °F 39% 30.13 in 10.0 mi NNW 12.7 mph 19.6 mph N/A   Clear
2:51 PM 91.9 °F 94.5 °F 66.0 °F 42% 30.13 in 10.0 mi NW 11.5 mph 16.1 mph N/A   Clear
3:51 PM 91.0 °F 93.8 °F 66.0 °F 44% 30.13 in 10.0 mi NW 11.5 mph - N/A   Clear
4:51 PM 91.0 °F 94.3 °F 66.9 °F 45% 30.12 in 10.0 mi NNW 6.9 mph - N/A   Clear
5:51 PM 89.1 °F 92.1 °F 66.9 °F 48% 30.12 in 10.0 mi NW 9.2 mph - N/A   Clear
6:51 PM 88.0 °F 91.4 °F 68.0 °F 51% 30.13 in 10.0 mi NNW 6.9 mph - N/A   Partly Cloudy
7:51 PM 84.9 °F 88.2 °F 68.0 °F 57% 30.14 in 10.0 mi NNW 3.5 mph - N/A   Clear
8:51 PM 79.0 °F - 72.0 °F 79% 30.15 in 10.0 mi Calm Calm - N/A   Clear
9:51 PM 77.0 °F - 72.0 °F 84% 30.16 in 10.0 mi Calm Calm - N/A   Clear
10:51 PM 75.0 °F - 71.1 °F 87% 30.16 in 10.0 mi Calm Calm - N/A   Clear
11:51 PM 72.0 °F - 71.1 °F 97% 30.17 in 8.0 mi Calm Calm - N/A   Clear